Time,TemperatureF,DewpointF,PressureIn,WindDirection,WindDirectionDegrees,WindSpeedMPH,WindSpeedGustMPH,Humidity,HourlyPrecipIn,Conditions,Clouds,dailyrainin,SoftwareType,DateUTC
2013-04-18 00:02:00,34.5,33.8,30.09,North,350,0.0,0.0,97,0.00,,,-99.99,Weather View 32 v70,2013-04-18 05:02:00,
2013-04-18 00:12:00,34.5,33.8,30.09,NE,37,0.0,0.0,97,0.00,,,-99.99,Weather View 32 v70,2013-04-18 05:12:00,
2013-04-18 00:17:00,34.5,33.8,30.09,NE,49,0.0,0.0,97,0.00,,,-99.99,Weather View 32 v70,2013-04-18 05:17:00,
2013-04-18 00:27:00,34.5,33.8,30.09,North,0,0.0,0.0,97,0.00,,,-99.99,Weather View 32 v70,2013-04-18 05:27:00,
2013-04-18 00:32:00,34.5,33.8,30.09,North,0,0.0,0.0,97,0.00,,,-99.99,Weather View 32 v70,2013-04-18 05:32:00,
2013-04-18 00:37:00,34.5,33.8,30.09,North,353,0.0,0.0,97,0.00,,,-99.99,Weather View 32 v70,2013-04-18 05:37:00,
2013-04-18 00:42:00,34.3,33.6,30.09,North,1,0.0,0.0,97,0.00,,,-99.99,Weather View 32 v70,2013-04-18 05:42:00,
2013-04-18 00:47:00,34.2,33.4,30.09,North,4,0.0,0.0,97,0.00,,,-99.99,Weather View 32 v70,2013-04-18 05:47:00,
2013-04-18 00:52:00,34.0,33.2,30.09,NNE,16,0.0,0.0,97,0.00,,,-99.99,Weather View 32 v70,2013-04-18 05:52:00,
2013-04-18 01:02:00,33.8,33.0,30.06,North,3,0.0,0.0,97,0.00,,,-99.99,Weather View 32 v70,2013-04-18 06:02:00,
2013-04-18 01:12:00,33.6,33.1,30.06,NE,35,0.0,0.0,98,0.00,,,-99.99,Weather View 32 v70,2013-04-18 06:12:00,
2013-04-18 01:17:00,33.6,33.1,30.06,NNE,16,0.0,0.0,98,0.00,,,-99.99,Weather View 32 v70,2013-04-18 06:17:00,
2013-04-18 01:22:00,33.6,33.1,30.06,North,10,0.0,0.0,98,0.00,,,-99.99,Weather View 32 v70,2013-04-18 06:22:00,
2013-04-18 01:32:00,33.4,32.9,30.06,NE,37,0.0,0.0,98,0.00,,,-99.99,Weather View 32 v70,2013-04-18 06:32:00,
2013-04-18 01:37:00,33.3,32.8,30.06,NNE,14,0.0,0.0,98,0.00,,,-99.99,Weather View 32 v70,2013-04-18 06:37:00,
2013-04-18 01:42:00,33.3,32.8,30.03,North,1,0.0,0.0,98,0.00,,,-99.99,Weather View 32 v70,2013-04-18 06:42:00,
2013-04-18 01:49:00,33.3,32.8,30.03,NNE,15,0.0,0.0,98,0.00,,,-99.99,Weather View 32 v70,2013-04-18 06:49:00,
2013-04-18 01:57:00,33.3,32.8,30.03,North,353,0.0,0.0,98,0.00,,,-99.99,Weather View 32 v70,2013-04-18 06:57:00,
2013-04-18 02:02:00,33.3,32.8,30.03,North,2,0.0,0.0,98,0.00,,,-99.99,Weather View 32 v70,2013-04-18 07:02:00,
2013-04-18 02:12:00,33.3,32.8,30.03,NE,42,0.0,0.0,98,0.00,,,-99.99,Weather View 32 v70,2013-04-18 07:12:00,
2013-04-18 02:17:00,33.3,32.8,30.03,NNW,337,0.0,0.0,98,0.00,,,-99.99,Weather View 32 v70,2013-04-18 07:17:00,
2013-04-18 02:22:00,33.3,32.8,30.03,North,0,0.0,0.0,98,0.00,,,-99.99,Weather View 32 v70,2013-04-18 07:22:00,
2013-04-18 02:27:00,33.3,32.8,30.00,NW,305,0.0,0.0,98,0.00,,,-99.99,Weather View 32 v70,2013-04-18 07:27:00,
2013-04-18 02:32:00,33.3,32.8,30.00,NW,325,0.0,0.0,98,0.00,,,-99.99,Weather View 32 v70,2013-04-18 07:32:00,
2013-04-18 02:42:00,33.3,32.8,30.00,NNE,19,0.0,0.0,98,0.00,,,-99.99,Weather View 32 v70,2013-04-18 07:42:00,
2013-04-18 02:47:00,33.3,32.8,30.00,North,7,0.0,0.0,98,0.00,,,-99.99,Weather View 32 v70,2013-04-18 07:47:00,
2013-04-18 02:57:00,33.3,32.8,30.00,NNW,345,0.0,0.0,98,0.00,,,-99.99,Weather View 32 v70,2013-04-18 07:57:00,
2013-04-18 03:02:00,33.4,32.9,30.00,NNE,32,0.0,0.0,98,0.00,,,-99.99,Weather View 32 v70,2013-04-18 08:02:00,
2013-04-18 03:07:00,33.4,32.9,30.00,North,7,0.0,0.0,98,0.00,,,-99.99,Weather View 32 v70,2013-04-18 08:07:00,
2013-04-18 03:12:00,33.4,32.9,30.00,NNW,344,0.0,0.0,98,0.00,,,-99.99,Weather View 32 v70,2013-04-18 08:12:00,
2013-04-18 03:22:00,33.6,33.1,30.00,North,353,0.0,0.0,98,0.00,,,-99.99,Weather View 32 v70,2013-04-18 08:22:00,
2013-04-18 03:27:00,33.6,33.1,30.00,NNE,24,0.0,0.0,98,0.00,,,-99.99,Weather View 32 v70,2013-04-18 08:27:00,
2013-04-18 03:32:00,33.6,33.1,30.00,ENE,59,0.0,0.0,98,0.00,,,-99.99,Weather View 32 v70,2013-04-18 08:32:00,
2013-04-18 03:42:00,33.6,33.1,30.00,North,357,0.0,0.0,98,0.00,,,-99.99,Weather View 32 v70,2013-04-18 08:42:00,
2013-04-18 03:47:00,33.6,33.1,30.00,NNE,33,0.0,0.0,98,0.00,,,-99.99,Weather View 32 v70,2013-04-18 08:47:00,
2013-04-18 03:57:00,33.6,33.1,30.00,ENE,63,0.0,0.0,98,0.00,,,-99.99,Weather View 32 v70,2013-04-18 08:57:00,
2013-04-18 04:02:00,33.6,33.1,30.00,NNW,342,0.0,0.0,98,0.00,,,-99.99,Weather View 32 v70,2013-04-18 09:02:00,
2013-04-18 04:07:00,33.6,33.1,30.00,ENE,75,0.0,0.0,98,0.00,,,-99.99,Weather View 32 v70,2013-04-18 09:07:00,
2013-04-18 04:12:00,33.6,33.1,30.00,North,357,0.0,0.0,98,0.00,,,-99.99,Weather View 32 v70,2013-04-18 09:12:00,
2013-04-18 04:17:00,33.4,32.9,30.00,NE,49,0.0,0.0,98,0.00,,,-99.99,Weather View 32 v70,2013-04-18 09:17:00,
2013-04-18 04:27:00,33.6,33.1,30.03,North,357,0.0,0.0,98,0.00,,,-99.99,Weather View 32 v70,2013-04-18 09:27:00,
2013-04-18 04:32:00,33.6,33.1,30.03,North,0,0.0,0.0,98,0.00,,,-99.99,Weather View 32 v70,2013-04-18 09:32:00,
2013-04-18 04:42:00,33.4,32.9,30.00,NE,56,0.0,0.0,98,0.00,,,-99.99,Weather View 32 v70,2013-04-18 09:42:00,
2013-04-18 04:47:00,33.4,32.9,30.00,NNW,329,0.0,0.0,98,0.00,,,-99.99,Weather View 32 v70,2013-04-18 09:47:00,
2013-04-18 04:52:00,33.4,32.9,30.00,NE,54,0.0,0.0,98,0.00,,,-99.99,Weather View 32 v70,2013-04-18 09:52:00,
2013-04-18 05:02:00,33.6,33.1,30.00,NNW,346,0.0,0.0,98,0.00,,,-99.99,Weather View 32 v70,2013-04-18 10:02:00,
2013-04-18 05:07:00,33.6,33.1,30.00,NNE,27,0.0,0.0,98,0.00,,,-99.99,Weather View 32 v70,2013-04-18 10:07:00,
2013-04-18 05:12:00,33.4,32.9,30.00,North,357,0.0,0.0,98,0.00,,,-99.99,Weather View 32 v70,2013-04-18 10:12:00,
2013-04-18 05:17:00,33.4,32.9,30.00,North,8,0.0,0.0,98,0.00,,,-99.99,Weather View 32 v70,2013-04-18 10:17:00,
2013-04-18 05:27:00,33.4,32.9,30.00,East,79,0.0,0.0,98,0.00,,,-99.99,Weather View 32 v70,2013-04-18 10:27:00,
2013-04-18 05:37:00,33.4,32.9,30.00,WSW,246,0.0,0.0,98,0.00,,,-99.99,Weather View 32 v70,2013-04-18 10:37:00,
2013-04-18 05:42:00,33.4,32.9,30.00,North,5,0.0,0.0,98,0.00,,,-99.99,Weather View 32 v70,2013-04-18 10:42:00,
2013-04-18 05:51:00,33.4,32.9,29.97,North,8,0.0,0.0,98,0.00,,,-99.99,Weather View 32 v70,2013-04-18 10:51:00,
2013-04-18 05:57:00,33.3,32.8,29.97,North,353,0.0,0.0,98,0.00,,,-99.99,Weather View 32 v70,2013-04-18 10:57:00,
2013-04-18 06:02:00,33.3,32.8,29.97,NNW,327,0.0,0.0,98,0.00,,,-99.99,Weather View 32 v70,2013-04-18 11:02:00,
2013-04-18 06:12:00,33.4,32.9,29.97,North,0,0.0,0.0,98,0.00,,,-99.99,Weather View 32 v70,2013-04-18 11:12:00,
2013-04-18 06:17:00,33.4,32.9,29.97,NW,325,0.0,0.0,98,0.00,,,-99.99,Weather View 32 v70,2013-04-18 11:17:00,
2013-04-18 06:27:00,33.3,32.8,29.97,NE,45,0.0,0.0,98,0.00,,,-99.99,Weather View 32 v70,2013-04-18 11:27:00,
2013-04-18 06:32:00,33.3,32.8,29.97,NE,38,0.0,0.0,98,0.00,,,-99.99,Weather View 32 v70,2013-04-18 11:32:00,
2013-04-18 06:42:00,33.3,32.8,29.97,NNW,337,0.0,0.0,98,0.00,,,-99.99,Weather View 32 v70,2013-04-18 11:42:00,
2013-04-18 06:47:00,33.3,32.8,29.97,North,350,0.0,0.0,98,0.00,,,-99.99,Weather View 32 v70,2013-04-18 11:47:00,
2013-04-18 06:57:00,33.4,32.9,29.97,North,5,0.0,0.0,98,0.00,,,-99.99,Weather View 32 v70,2013-04-18 11:57:00,
2013-04-18 07:02:00,33.4,32.9,29.97,North,357,0.0,0.0,98,0.00,,,-99.99,Weather View 32 v70,2013-04-18 12:02:00,
2013-04-18 07:07:00,33.6,33.1,29.97,ENE,62,0.0,0.0,98,0.00,,,-99.99,Weather View 32 v70,2013-04-18 12:07:00,
2013-04-18 07:12:00,33.6,33.1,29.94,North,357,0.0,0.0,98,0.00,,,-99.99,Weather View 32 v70,2013-04-18 12:12:00,
2013-04-18 07:22:00,33.6,33.1,29.94,NNE,23,0.0,0.0,98,0.00,,,-99.99,Weather View 32 v70,2013-04-18 12:22:00,
2013-04-18 07:27:00,33.6,33.1,29.94,East,84,0.0,0.0,98,0.00,,,-99.99,Weather View 32 v70,2013-04-18 12:27:00,
2013-04-18 07:37:00,33.8,33.3,29.94,North,3,0.0,0.0,98,0.00,,,-99.99,Weather View 32 v70,2013-04-18 12:37:00,
2013-04-18 07:42:00,33.8,33.3,29.94,NE,36,0.0,0.0,98,0.00,,,-99.99,Weather View 32 v70,2013-04-18 12:42:00,
2013-04-18 07:52:00,34.0,33.5,29.94,North,353,0.0,0.0,98,0.00,,,-99.99,Weather View 32 v70,2013-04-18 12:52:00,
2013-04-18 08:02:00,34.0,33.5,29.94,NNW,341,0.0,0.0,98,0.00,,,-99.99,Weather View 32 v70,2013-04-18 13:02:00,
2013-04-18 08:12:00,34.2,33.7,29.94,NNE,24,0.0,0.0,98,0.00,,,-99.99,Weather View 32 v70,2013-04-18 13:12:00,
2013-04-18 08:17:00,34.2,33.7,29.94,North,0,0.0,0.0,98,0.00,,,-99.99,Weather View 32 v70,2013-04-18 13:17:00,
2013-04-18 08:27:00,34.2,33.7,29.94,NNE,13,0.0,0.0,98,0.00,,,-99.99,Weather View 32 v70,2013-04-18 13:27:00,
2013-04-18 08:32:00,34.2,33.7,29.94,NE,50,0.0,0.0,98,0.00,,,-99.99,Weather View 32 v70,2013-04-18 13:32:00,
2013-04-18 08:42:00,34.2,33.7,29.94,ENE,70,0.0,0.0,98,0.00,,,-99.99,Weather View 32 v70,2013-04-18 13:42:00,
2013-04-18 08:52:00,34.2,33.7,29.94,NNE,15,0.0,0.0,98,0.00,,,-99.99,Weather View 32 v70,2013-04-18 13:52:00,
2013-04-18 09:02:00,34.3,33.8,29.94,NE,35,0.0,0.0,98,0.00,,,-99.99,Weather View 32 v70,2013-04-18 14:02:00,
2013-04-18 09:07:00,34.3,33.8,29.94,North,357,0.0,0.0,98,0.00,,,-99.99,Weather View 32 v70,2013-04-18 14:07:00,
2013-04-18 09:17:00,34.3,33.8,29.94,North,4,0.0,0.0,98,0.00,,,-99.99,Weather View 32 v70,2013-04-18 14:17:00,
2013-04-18 09:22:00,34.5,34.0,29.94,NNW,341,0.0,0.0,98,0.00,,,-99.99,Weather View 32 v70,2013-04-18 14:22:00,
2013-04-18 09:32:00,34.5,34.0,29.94,North,4,0.0,0.0,98,0.00,,,-99.99,Weather View 32 v70,2013-04-18 14:32:00,
2013-04-18 09:42:00,34.7,34.2,29.94,NW,316,0.0,0.0,98,0.00,,,-99.99,Weather View 32 v70,2013-04-18 14:42:00,
2013-04-18 09:47:00,34.7,34.2,29.92,North,5,0.0,0.0,98,0.00,,,-99.99,Weather View 32 v70,2013-04-18 14:47:00,
2013-04-18 09:52:00,34.7,34.2,29.92,NNW,335,0.0,0.0,98,0.00,,,-99.99,Weather View 32 v70,2013-04-18 14:52:00,
2013-04-18 09:57:00,34.7,34.2,29.92,NE,48,0.0,0.0,98,0.00,,,-99.99,Weather View 32 v70,2013-04-18 14:57:00,
2013-04-18 10:02:00,34.7,34.2,29.92,North,357,0.0,0.0,98,0.00,,,-99.99,Weather View 32 v70,2013-04-18 15:02:00,
2013-04-18 10:12:00,34.9,34.4,29.92,North,2,0.0,0.0,98,0.00,,,-99.99,Weather View 32 v70,2013-04-18 15:12:00,
2013-04-18 10:22:00,34.9,34.4,29.92,North,357,0.0,0.0,98,0.00,,,-99.99,Weather View 32 v70,2013-04-18 15:22:00,
2013-04-18 10:27:00,34.9,34.4,29.92,ENE,78,0.0,0.0,98,0.00,,,-99.99,Weather View 32 v70,2013-04-18 15:27:00,
2013-04-18 10:32:00,34.9,34.4,29.92,North,353,0.0,0.0,98,0.00,,,-99.99,Weather View 32 v70,2013-04-18 15:32:00,
2013-04-18 10:37:00,34.9,34.4,29.92,North,353,0.0,0.0,98,0.00,,,-99.99,Weather View 32 v70,2013-04-18 15:37:00,
2013-04-18 10:47:00,34.9,34.4,29.92,NNE,17,4.0,4.0,98,0.00,,,-99.99,Weather View 32 v70,2013-04-18 15:47:00,
2013-04-18 10:52:00,34.9,34.4,29.92,North,357,0.0,4.0,98,0.00,,,-99.99,Weather View 32 v70,2013-04-18 15:52:00,
2013-04-18 10:57:00,34.9,34.4,29.89,North,353,0.0,4.0,98,0.00,,,-99.99,Weather View 32 v70,2013-04-18 15:57:00,
2013-04-18 11:02:00,34.9,34.1,29.89,North,353,0.0,4.0,97,0.00,,,-99.99,Weather View 32 v70,2013-04-18 16:02:00,
2013-04-18 11:12:00,34.9,34.1,29.89,East,80,0.0,4.0,97,0.00,,,-99.99,Weather View 32 v70,2013-04-18 16:12:00,
2013-04-18 11:17:00,34.9,34.1,29.89,NE,52,0.0,4.0,97,0.00,,,-99.99,Weather View 32 v70,2013-04-18 16:17:00,
2013-04-18 11:22:00,34.9,33.9,29.89,North,0,4.0,11.0,96,0.00,,,-99.99,Weather View 32 v70,2013-04-18 16:22:00,
2013-04-18 11:32:00,35.1,34.0,29.89,NE,49,6.0,11.0,96,0.00,,,-99.99,Weather View 32 v70,2013-04-18 16:32:00,
2013-04-18 11:37:00,35.1,34.0,29.89,North,0,6.0,11.0,96,0.00,,,-99.99,Weather View 32 v70,2013-04-18 16:37:00,
2013-04-18 11:42:00,35.2,34.2,29.89,NNW,346,6.0,11.0,96,0.00,,,-99.99,Weather View 32 v70,2013-04-18 16:42:00,
2013-04-18 11:52:00,35.6,34.3,29.89,NE,49,4.0,11.0,95,0.00,,,-99.99,Weather View 32 v70,2013-04-18 16:52:00,
2013-04-18 11:57:00,35.8,34.5,29.89,South,174,3.0,11.0,95,0.00,,,-99.99,Weather View 32 v70,2013-04-18 16:57:00,
2013-04-18 12:02:00,36.0,34.7,29.89,North,357,4.0,11.0,95,0.00,,,-99.99,Weather View 32 v70,2013-04-18 17:02:00,
2013-04-18 12:07:00,36.1,34.6,29.89,NW,326,4.0,11.0,94,0.00,,,-99.99,Weather View 32 v70,2013-04-18 17:07:00,
2013-04-18 12:17:00,36.3,34.5,29.89,NE,36,4.0,11.0,93,0.00,,,-99.99,Weather View 32 v70,2013-04-18 17:17:00,
2013-04-18 12:22:00,36.3,34.5,29.89,North,2,4.0,11.0,93,0.00,,,-99.99,Weather View 32 v70,2013-04-18 17:22:00,
2013-04-18 12:27:00,36.3,34.2,29.89,NE,49,7.0,11.0,92,0.00,,,-99.99,Weather View 32 v70,2013-04-18 17:27:00,
2013-04-18 12:37:00,36.3,33.7,29.89,North,11,6.0,11.0,90,0.04,,,-99.99,Weather View 32 v70,2013-04-18 17:37:00,
2013-04-18 12:42:00,36.7,33.5,29.89,NNW,329,3.0,11.0,88,0.04,,,-99.99,Weather View 32 v70,2013-04-18 17:42:00,
2013-04-18 12:47:00,36.7,33.5,29.89,NNW,334,8.0,11.0,88,0.04,,,-99.99,Weather View 32 v70,2013-04-18 17:47:00,
2013-04-18 12:55:00,36.7,33.5,29.89,North,2,4.0,11.0,88,0.04,,,-99.99,Weather View 32 v70,2013-04-18 17:55:00,
2013-04-18 13:02:00,36.5,32.4,29.89,North,357,8.0,11.0,85,0.08,,,-99.99,Weather View 32 v70,2013-04-18 18:02:00,
2013-04-18 13:12:00,36.3,31.9,29.89,North,353,5.0,11.0,84,0.08,,,-99.99,Weather View 32 v70,2013-04-18 18:12:00,
2013-04-18 13:17:00,36.7,32.0,29.89,North,353,8.0,11.0,83,0.08,,,-99.99,Weather View 32 v70,2013-04-18 18:17:00,
2013-04-18 13:27:00,36.3,31.3,29.86,North,357,8.0,13.0,82,0.08,,,-99.99,Weather View 32 v70,2013-04-18 18:27:00,
2013-04-18 13:32:00,36.3,31.3,29.86,NNW,346,6.0,13.0,82,0.08,,,-99.99,Weather View 32 v70,2013-04-18 18:32:00,
2013-04-18 13:42:00,36.3,30.1,29.86,NNE,15,9.0,13.0,78,0.04,,,-99.99,Weather View 32 v70,2013-04-18 18:42:00,
2013-04-18 13:47:00,36.3,29.8,29.86,North,0,5.0,13.0,77,0.04,,,-99.99,Weather View 32 v70,2013-04-18 18:47:00,
2013-04-18 13:57:00,36.3,29.1,29.86,NNE,21,7.0,13.0,75,0.00,,,-99.99,Weather View 32 v70,2013-04-18 18:57:00,
2013-04-18 14:02:00,36.3,28.5,29.86,NNE,29,10.0,13.0,73,0.00,,,-99.99,Weather View 32 v70,2013-04-18 19:02:00,
2013-04-18 14:17:00,36.7,28.2,29.86,North,4,5.0,13.0,71,0.00,,,-99.99,Weather View 32 v70,2013-04-18 19:17:00,
2013-04-18 14:22:00,36.5,27.6,29.86,NNE,23,3.0,13.0,70,0.00,,,-99.99,Weather View 32 v70,2013-04-18 19:22:00,
2013-04-18 14:27:00,36.5,27.3,29.86,NNW,345,8.0,15.0,69,0.00,,,-99.99,Weather View 32 v70,2013-04-18 19:27:00,
2013-04-18 14:37:00,36.5,27.3,29.86,NW,313,12.0,15.0,69,0.00,,,-99.99,Weather View 32 v70,2013-04-18 19:37:00,
2013-04-18 14:42:00,36.5,27.3,29.86,NE,44,3.0,15.0,69,0.00,,,-99.99,Weather View 32 v70,2013-04-18 19:42:00,
2013-04-18 14:47:00,36.5,27.3,29.86,North,8,8.0,17.0,69,0.00,,,-99.99,Weather View 32 v70,2013-04-18 19:47:00,
2013-04-18 14:56:00,36.7,27.1,29.86,NNE,17,4.0,17.0,68,0.00,,,-99.99,Weather View 32 v70,2013-04-18 19:56:00,
2013-04-18 15:02:00,36.5,26.6,29.86,North,353,9.0,17.0,67,0.00,,,-99.99,Weather View 32 v70,2013-04-18 20:02:00,
2013-04-18 15:12:00,36.5,26.9,29.86,NNW,340,8.0,17.0,68,0.00,,,-99.99,Weather View 32 v70,2013-04-18 20:12:00,
2013-04-18 15:17:00,36.7,27.1,29.86,NNW,338,5.0,17.0,68,0.00,,,-99.99,Weather View 32 v70,2013-04-18 20:17:00,
2013-04-18 15:22:00,36.7,27.1,29.86,NW,324,8.0,17.0,68,0.00,,,-99.99,Weather View 32 v70,2013-04-18 20:22:00,
2013-04-18 15:32:00,37.0,26.7,29.83,North,10,4.0,17.0,66,0.00,,,-99.99,Weather View 32 v70,2013-04-18 20:32:00,
2013-04-18 15:37:00,37.0,26.7,29.83,WNW,302,6.0,17.0,66,0.00,,,-99.99,Weather View 32 v70,2013-04-18 20:37:00,
2013-04-18 15:42:00,37.0,26.4,29.86,NNW,336,6.0,17.0,65,0.00,,,-99.99,Weather View 32 v70,2013-04-18 20:42:00,
2013-04-18 15:47:00,37.2,26.5,29.86,North,353,5.0,17.0,65,0.00,,,-99.99,Weather View 32 v70,2013-04-18 20:47:00,
2013-04-18 15:52:00,37.4,26.3,29.86,NNW,330,6.0,15.0,64,0.00,,,-99.99,Weather View 32 v70,2013-04-18 20:52:00,
2013-04-18 15:57:00,37.0,26.7,29.86,NNE,31,11.0,15.0,66,0.00,,,-99.99,Weather View 32 v70,2013-04-18 20:57:00,
2013-04-18 16:07:00,36.7,27.5,29.83,WNW,302,6.0,15.0,69,0.00,,,-99.99,Weather View 32 v70,2013-04-18 21:07:00,
2013-04-18 16:12:00,36.3,26.4,29.83,NNW,338,9.0,15.0,67,0.00,,,-99.99,Weather View 32 v70,2013-04-18 21:12:00,
2013-04-18 16:17:00,36.3,25.3,29.83,NW,326,8.0,18.0,64,0.00,,,-99.99,Weather View 32 v70,2013-04-18 21:17:00,
2013-04-18 16:22:00,36.3,24.9,29.83,NNE,24,12.0,18.0,63,0.00,,,-99.99,Weather View 32 v70,2013-04-18 21:22:00,
2013-04-18 16:32:00,36.1,23.6,29.83,WNW,298,9.0,18.0,60,0.00,,,-99.99,Weather View 32 v70,2013-04-18 21:32:00,
2013-04-18 16:37:00,36.1,23.2,29.83,WNW,292,13.0,18.0,59,0.00,,,-99.99,Weather View 32 v70,2013-04-18 21:37:00,
2013-04-18 16:42:00,36.1,22.8,29.83,NNW,341,8.0,18.0,58,0.00,,,-99.99,Weather View 32 v70,2013-04-18 21:42:00,
2013-04-18 16:52:00,36.1,21.9,29.83,North,353,11.0,18.0,56,0.00,,,-99.99,Weather View 32 v70,2013-04-18 21:52:00,
2013-04-18 16:57:00,36.1,21.5,29.83,North,9,8.0,18.0,55,0.00,,,-99.99,Weather View 32 v70,2013-04-18 21:57:00,
2013-04-18 17:02:00,36.1,21.1,29.83,NNW,343,8.0,18.0,54,0.00,,,-99.99,Weather View 32 v70,2013-04-18 22:02:00,
2013-04-18 17:12:00,36.0,20.5,29.83,North,1,8.0,18.0,53,0.00,,,-99.99,Weather View 32 v70,2013-04-18 22:12:00,
2013-04-18 17:17:00,35.8,19.9,29.83,NNW,343,11.0,15.0,52,0.00,,,-99.99,Weather View 32 v70,2013-04-18 22:17:00,
2013-04-18 17:22:00,35.8,19.9,29.83,North,353,8.0,15.0,52,0.00,,,-99.99,Weather View 32 v70,2013-04-18 22:22:00,
2013-04-18 17:27:00,35.8,19.9,29.83,North,0,13.0,15.0,52,0.00,,,-99.99,Weather View 32 v70,2013-04-18 22:27:00,
2013-04-18 17:32:00,35.8,19.9,29.83,NNW,345,5.0,15.0,52,0.00,,,-99.99,Weather View 32 v70,2013-04-18 22:32:00,
2013-04-18 17:37:00,35.8,20.3,29.83,NW,320,8.0,15.0,53,0.00,,,-99.99,Weather View 32 v70,2013-04-18 22:37:00,
2013-04-18 17:42:00,35.8,20.3,29.83,North,357,5.0,15.0,53,0.00,,,-99.99,Weather View 32 v70,2013-04-18 22:42:00,
2013-04-18 17:47:00,35.6,20.1,29.83,NNE,19,6.0,15.0,53,0.00,,,-99.99,Weather View 32 v70,2013-04-18 22:47:00,
2013-04-18 17:57:00,35.6,20.6,29.83,North,5,9.0,15.0,54,0.00,,,-99.99,Weather View 32 v70,2013-04-18 22:57:00,
2013-04-18 18:02:00,35.6,20.6,29.83,NNW,335,8.0,15.0,54,0.00,,,-99.99,Weather View 32 v70,2013-04-18 23:02:00,
2013-04-18 18:12:00,35.6,21.0,29.83,North,349,11.0,15.0,55,0.00,,,-99.99,Weather View 32 v70,2013-04-18 23:12:00,
2013-04-18 18:22:00,35.6,21.0,29.83,North,353,11.0,15.0,55,0.00,,,-99.99,Weather View 32 v70,2013-04-18 23:22:00,
2013-04-18 18:27:00,35.6,21.0,29.83,NNE,15,11.0,15.0,55,0.00,,,-99.99,Weather View 32 v70,2013-04-18 23:27:00,
2013-04-18 18:37:00,35.4,21.3,29.83,NW,320,13.0,15.0,56,0.00,,,-99.99,Weather View 32 v70,2013-04-18 23:37:00,
2013-04-18 18:42:00,35.4,20.8,29.83,North,353,8.0,15.0,55,0.00,,,-99.99,Weather View 32 v70,2013-04-18 23:42:00,
2013-04-18 18:52:00,35.2,21.1,29.83,NNE,18,8.0,15.0,56,0.00,,,-99.99,Weather View 32 v70,2013-04-18 23:52:00,
2013-04-18 18:59:00,35.2,20.7,29.83,North,353,9.0,15.0,55,0.00,,,-99.99,Weather View 32 v70,2013-04-18 23:59:00,
2013-04-18 19:07:00,35.1,20.5,29.83,NNW,345,9.0,15.0,55,0.00,,,-99.99,Weather View 32 v70,2013-04-19 00:07:00,
2013-04-18 19:17:00,35.1,20.1,29.83,North,1,12.0,15.0,54,0.00,,,-99.99,Weather View 32 v70,2013-04-19 00:17:00,
2013-04-18 19:22:00,35.1,20.1,29.83,NNW,339,6.0,15.0,54,0.00,,,-99.99,Weather View 32 v70,2013-04-19 00:22:00,
2013-04-18 19:32:00,34.9,19.5,29.83,NNW,338,13.0,16.0,53,0.00,,,-99.99,Weather View 32 v70,2013-04-19 00:32:00,
2013-04-18 19:37:00,34.9,19.5,29.83,NNW,332,9.0,16.0,53,0.00,,,-99.99,Weather View 32 v70,2013-04-19 00:37:00,
2013-04-18 19:42:00,34.7,19.3,29.83,NNW,336,8.0,17.0,53,0.00,,,-99.99,Weather View 32 v70,2013-04-19 00:42:00,
2013-04-18 19:47:00,34.7,19.3,29.83,North,357,9.0,17.0,53,0.00,,,-99.99,Weather View 32 v70,2013-04-19 00:47:00,
2013-04-18 19:57:00,34.5,19.1,29.83,NW,314,8.0,17.0,53,0.00,,,-99.99,Weather View 32 v70,2013-04-19 00:57:00,
2013-04-18 20:02:00,34.3,19.4,29.83,NW,307,10.0,17.0,54,0.00,,,-99.99,Weather View 32 v70,2013-04-19 01:02:00,
2013-04-18 20:12:00,34.0,19.1,29.83,NNW,343,8.0,17.0,54,0.00,,,-99.99,Weather View 32 v70,2013-04-19 01:12:00,
2013-04-18 20:22:00,34.0,18.6,29.83,NW,309,5.0,17.0,53,0.00,,,-99.99,Weather View 32 v70,2013-04-19 01:22:00,
2013-04-18 20:32:00,33.6,18.7,29.83,NNW,348,12.0,17.0,54,0.00,,,-99.99,Weather View 32 v70,2013-04-19 01:32:00,
2013-04-18 20:42:00,33.6,18.7,29.83,NNW,337,8.0,15.0,54,0.00,,,-99.99,Weather View 32 v70,2013-04-19 01:42:00,
2013-04-18 20:52:00,33.4,18.6,29.83,NW,314,6.0,15.0,54,0.00,,,-99.99,Weather View 32 v70,2013-04-19 01:52:00,
2013-04-18 20:57:00,33.3,18.4,29.83,North,0,3.0,15.0,54,0.00,,,-99.99,Weather View 32 v70,2013-04-19 01:57:00,
2013-04-18 21:02:00,33.3,18.4,29.83,NNW,335,6.0,15.0,54,0.00,,,-99.99,Weather View 32 v70,2013-04-19 02:02:00,
2013-04-18 21:12:00,33.1,18.2,29.83,NW,324,9.0,15.0,54,0.00,,,-99.99,Weather View 32 v70,2013-04-19 02:12:00,
2013-04-18 21:17:00,32.9,18.5,29.83,NNW,332,8.0,15.0,55,0.00,,,-99.99,Weather View 32 v70,2013-04-19 02:17:00,
2013-04-18 21:27:00,32.7,18.3,29.83,North,6,6.0,15.0,55,0.00,,,-99.99,Weather View 32 v70,2013-04-19 02:27:00,
2013-04-18 21:32:00,32.7,18.3,29.83,NW,310,11.0,15.0,55,0.00,,,-99.99,Weather View 32 v70,2013-04-19 02:32:00,
2013-04-18 21:37:00,32.7,18.3,29.83,North,357,6.0,15.0,55,0.00,,,-99.99,Weather View 32 v70,2013-04-19 02:37:00,
2013-04-18 21:42:00,32.7,18.3,29.83,North,0,8.0,15.0,55,0.00,,,-99.99,Weather View 32 v70,2013-04-19 02:42:00,
2013-04-18 21:52:00,32.5,18.2,29.83,NNW,337,8.0,15.0,55,0.00,,,-99.99,Weather View 32 v70,2013-04-19 02:52:00,
2013-04-18 22:02:00,32.5,18.2,29.83,North,353,8.0,15.0,55,0.00,,,-99.99,Weather View 32 v70,2013-04-19 03:02:00,
2013-04-18 22:12:00,32.4,17.6,29.83,WNW,301,10.0,15.0,54,0.00,,,-99.99,Weather View 32 v70,2013-04-19 03:12:00,
2013-04-18 22:17:00,32.2,17.4,29.83,NNE,21,7.0,15.0,54,0.00,,,-99.99,Weather View 32 v70,2013-04-19 03:17:00,
2013-04-18 22:22:00,32.2,17.8,29.83,North,0,4.0,15.0,55,0.00,,,-99.99,Weather View 32 v70,2013-04-19 03:22:00,
2013-04-18 22:27:00,32.2,17.8,29.83,North,353,4.0,15.0,55,0.00,,,-99.99,Weather View 32 v70,2013-04-19 03:27:00,
2013-04-18 22:32:00,32.2,17.8,29.83,North,357,11.0,15.0,55,0.00,,,-99.99,Weather View 32 v70,2013-04-19 03:32:00,
2013-04-18 22:42:00,32.0,17.6,29.83,North,353,9.0,15.0,55,0.00,,,-99.99,Weather View 32 v70,2013-04-19 03:42:00,
2013-04-18 22:52:00,32.0,17.6,29.83,NNE,14,8.0,13.0,55,0.00,,,-99.99,Weather View 32 v70,2013-04-19 03:52:00,
2013-04-18 22:57:00,32.0,17.6,29.83,North,10,6.0,13.0,55,0.00,,,-99.99,Weather View 32 v70,2013-04-19 03:57:00,
2013-04-18 23:03:00,32.0,17.6,29.83,North,353,6.0,13.0,55,0.00,,,-99.99,Weather View 32 v70,2013-04-19 04:03:00,
2013-04-18 23:07:00,31.8,17.5,29.83,NNW,344,6.0,12.0,55,0.00,,,-99.99,Weather View 32 v70,2013-04-19 04:07:00,
2013-04-18 23:12:00,31.8,17.5,29.83,NNE,27,8.0,12.0,55,0.00,,,-99.99,Weather View 32 v70,2013-04-19 04:12:00,
2013-04-18 23:17:00,31.8,17.5,29.83,North,349,8.0,12.0,55,0.00,,,-99.99,Weather View 32 v70,2013-04-19 04:17:00,
2013-04-18 23:22:00,31.6,17.7,29.83,North,4,6.0,12.0,56,0.00,,,-99.99,Weather View 32 v70,2013-04-19 04:22:00,
2013-04-18 23:27:00,31.6,17.7,29.83,NNW,343,6.0,12.0,56,0.00,,,-99.99,Weather View 32 v70,2013-04-19 04:27:00,
2013-04-18 23:37:00,31.6,17.7,29.83,North,1,3.0,12.0,56,0.00,,,-99.99,Weather View 32 v70,2013-04-19 04:37:00,
2013-04-18 23:47:00,31.5,18.0,29.80,North,2,8.0,12.0,57,0.00,,,-99.99,Weather View 32 v70,2013-04-19 04:47:00,
2013-04-18 23:57:00,31.3,17.8,29.80,North,8,6.0,12.0,57,0.00,,,-99.99,Weather View 32 v70,2013-04-19 04:57:00,